Weather History for Gustavus, AK

Change the Weather History Date:

Monday, December 24, 2012

  Actual Average Record
Temperature  
Mean Temperature 17 °F -  
Max Temperature 26 °F 34 °F 48 °F (1989)
Min Temperature 8 °F 26 °F -9 °F (1961)
Degree Days  
Heating Degree Days 48    
Moisture  
Dew Point 12 °F    
Average Humidity 76    
Maximum Humidity 92    
Minimum Humidity 67    
Precipitation  
Precipitation 0.00 in - - ()
Sea Level Pressure  
Sea Level Pressure 29.99 in    
Wind  
Wind Speed 2 mph (NNW)    
Max Wind Speed 7 mph    
Max Gust Speed -    
Visibility 10 miles    
Events      
Averages and records for this station are not official NWS values.
T = Trace of Precipitation, MM = Missing Value Source: NWS Daily Summary

Daily Weather History Graph

Daily Weather History Graph

Search for Another Location

Airport:

Trip Planner

Search our weather history database for the weather conditions in past years. The results will help you decide how hot, cold, wet, or windy it might be!

Date:

Astronomy

Dec. 24, 2012 Rise Set
Actual Time 8:52 AM AKST 3:13 PM AKST
Civil Twilight 7:59 AM AKST 4:06 PM AKST
Nautical Twilight 7:05 AM AKST 5:00 PM AKST
Astronomical Twilight 6:16 AM AKST 5:49 PM AKST
Moon 1:03 PM AKST (12/24) 5:17 AM AKST (12/24)
Length of Visible Light 8h 07m
Length of Day
6h 21m
Waxing Gibbous, 89% of the Moon is Illuminated
Dec 24
Waxing Gibbous
Dec 28
Full
Jan 4
Last Quarter
Jan 11
New
Jan 18
First Quarter

Hourly Weather History & Observations

Time (AKST) Temp. Windchill Dew Point Humidity Pressure Visibility Wind Dir Wind Speed Gust Speed Precip Events Conditions
12:16 AM 19.4 °F 14.3 °F 12.2 °F 74% 29.93 in 10.0 mi North 3.5 mph - N/A   Overcast
12:36 AM 19.4 °F 14.3 °F 12.2 °F 74% 29.94 in 10.0 mi North 3.5 mph - N/A   Overcast
12:56 AM 19.4 °F - 14.0 °F 80% 29.95 in 10.0 mi Calm Calm - N/A   Overcast
1:16 AM 19.4 °F - 12.2 °F 74% 29.96 in 10.0 mi Calm Calm - N/A   Overcast
1:36 AM 19.4 °F - 12.2 °F 74% 29.96 in 10.0 mi Calm Calm - N/A   Overcast
1:56 AM 19.4 °F - 14.0 °F 80% 29.96 in 10.0 mi Calm Calm - N/A   Overcast
2:16 AM 19.4 °F - 12.2 °F 74% 29.97 in 10.0 mi Calm Calm - N/A   Overcast
2:36 AM 19.4 °F - 14.0 °F 80% 29.98 in 10.0 mi Calm Calm - N/A   Overcast
2:56 AM 19.4 °F 12.8 °F 12.2 °F 74% 29.98 in 10.0 mi NNW 4.6 mph - N/A   Mostly Cloudy
3:16 AM 19.4 °F 12.8 °F 12.2 °F 74% 29.98 in 10.0 mi NNW 4.6 mph - N/A   Mostly Cloudy
3:36 AM 19.4 °F 14.3 °F 14.0 °F 80% 29.98 in 10.0 mi NW 3.5 mph - N/A   Overcast
3:56 AM 19.4 °F 14.3 °F 12.2 °F 74% 29.99 in 10.0 mi NNW 3.5 mph - N/A   Overcast
4:16 AM 19.4 °F - 14.0 °F 80% 30.00 in 10.0 mi Calm Calm - N/A   Overcast
4:36 AM 21.2 °F 14.9 °F 14.0 °F 74% 29.99 in 10.0 mi NNW 4.6 mph - N/A   Overcast
4:56 AM 21.2 °F - 15.8 °F 80% 30.00 in 10.0 mi Calm Calm - N/A   Overcast
5:16 AM 21.2 °F 13.6 °F 15.8 °F 80% 30.00 in 10.0 mi NNW 5.8 mph - N/A   Overcast
5:36 AM 23.0 °F 15.8 °F 15.8 °F 74% 30.01 in 10.0 mi NNW 5.8 mph - N/A   Overcast
5:56 AM 23.0 °F 15.8 °F 17.6 °F 80% 30.01 in 10.0 mi North 5.8 mph - N/A   Overcast
6:16 AM 23.0 °F 17.0 °F 15.8 °F 74% 30.01 in 10.0 mi North 4.6 mph - N/A   Overcast
6:36 AM 23.0 °F 14.7 °F 15.8 °F 74% 30.01 in 10.0 mi NNW 6.9 mph - N/A   Overcast
6:56 AM 23.0 °F 17.0 °F 15.8 °F 74% 30.03 in 10.0 mi NNW 4.6 mph - N/A   Overcast
7:16 AM 23.0 °F 17.0 °F 15.8 °F 74% 30.03 in 10.0 mi NNW 4.6 mph - N/A   Overcast
7:36 AM 23.0 °F - 15.8 °F 74% 30.03 in 10.0 mi Calm Calm - N/A   Overcast
7:56 AM 23.0 °F 18.4 °F 15.8 °F 74% 30.03 in 10.0 mi NNW 3.5 mph - N/A   Overcast
8:16 AM 24.8 °F 20.5 °F 15.8 °F 69% 30.04 in 10.0 mi NW 3.5 mph - N/A   Overcast
8:36 AM 24.8 °F 20.5 °F 17.6 °F 74% 30.04 in 10.0 mi NNW 3.5 mph - N/A   Overcast
8:56 AM 24.8 °F 20.5 °F 17.6 °F 74% 30.05 in 10.0 mi NW 3.5 mph - N/A   Overcast
9:16 AM 23.0 °F 15.8 °F 17.6 °F 80% 30.05 in 10.0 mi NNW 5.8 mph - N/A   Overcast
9:36 AM 23.0 °F 14.7 °F 15.8 °F 74% 30.06 in 10.0 mi NNW 6.9 mph - N/A   Overcast
9:56 AM 24.8 °F 16.9 °F 17.6 °F 74% 30.06 in 10.0 mi NNW 6.9 mph - N/A   Overcast
10:16 AM 24.8 °F 17.9 °F 17.6 °F 74% 30.06 in 10.0 mi North 5.8 mph - N/A   Overcast
10:36 AM 24.8 °F 17.9 °F 17.6 °F 74% 30.06 in 10.0 mi NNW 5.8 mph - N/A   Overcast
10:56 AM 24.8 °F 20.5 °F 17.6 °F 74% 30.05 in 10.0 mi NNW 3.5 mph - N/A   Overcast
11:16 AM 26.6 °F - 17.6 °F 69% 30.06 in 10.0 mi Calm Calm - N/A   Overcast
11:36 AM 26.6 °F 22.6 °F 17.6 °F 69% 30.06 in 10.0 mi WSW 3.5 mph - N/A   Overcast
11:56 AM 26.6 °F - 17.6 °F 69% 30.06 in 10.0 mi Calm Calm - N/A   Overcast
12:16 PM 26.6 °F 22.6 °F 17.6 °F 69% 30.06 in 10.0 mi North 3.5 mph - N/A   Mostly Cloudy
12:36 PM 24.8 °F - 17.6 °F 74% 30.06 in 10.0 mi Calm Calm - N/A   Scattered Clouds
12:56 PM 24.8 °F - 17.6 °F 74% 30.06 in 10.0 mi Calm Calm - N/A   Overcast
1:16 PM 24.8 °F - 17.6 °F 74% 30.05 in 10.0 mi Calm Calm - N/A   Scattered Clouds
1:36 PM 24.8 °F - 17.6 °F 74% 30.04 in 10.0 mi Calm Calm - N/A   Partly Cloudy
1:56 PM 23.0 °F - 17.6 °F 80% 30.03 in 10.0 mi Calm Calm - N/A   Clear
2:16 PM 21.2 °F 16.4 °F 15.8 °F 80% 30.02 in 10.0 mi WSW 3.5 mph - N/A   Clear
2:36 PM 21.2 °F - 15.8 °F 80% 30.02 in 10.0 mi Calm Calm - N/A   Clear
2:56 PM 21.2 °F 14.9 °F 15.8 °F 80% 30.02 in 10.0 mi NNE 4.6 mph - N/A   Partly Cloudy
3:16 PM 17.6 °F - 14.0 °F 86% 30.02 in 10.0 mi Calm Calm - N/A   Mostly Cloudy
3:36 PM 17.6 °F 10.7 °F 12.2 °F 79% 30.00 in 10.0 mi North 4.6 mph - N/A   Scattered Clouds
3:56 PM 15.8 °F - 10.4 °F 79% 30.00 in 10.0 mi Calm Calm - N/A   Clear
4:16 PM 17.6 °F - 10.4 °F 73% 29.99 in 10.0 mi Calm Calm - N/A   Clear
4:36 PM 17.6 °F - 12.2 °F 79% 29.99 in 10.0 mi Calm Calm - N/A   Clear
4:56 PM 15.8 °F - 8.6 °F 73% 29.99 in 10.0 mi Calm Calm - N/A   Clear
5:16 PM 12.2 °F - 6.8 °F 79% 29.98 in 10.0 mi Calm Calm - N/A   Clear
5:36 PM 12.2 °F - 6.8 °F 79% 29.98 in 10.0 mi Calm Calm - N/A   Clear
5:56 PM 12.2 °F - 6.8 °F 79% 29.97 in 10.0 mi Calm Calm - N/A   Clear
6:16 PM 12.2 °F - 6.8 °F 79% 29.97 in 10.0 mi Calm Calm - N/A   Clear
6:36 PM 12.2 °F 4.3 °F 3.2 °F 67% 29.95 in 10.0 mi North 4.6 mph - N/A   Clear
6:56 PM 12.2 °F - 5.0 °F 73% 29.94 in 10.0 mi Calm Calm - N/A   Clear
7:16 PM 10.4 °F - 3.2 °F 73% 29.94 in 10.0 mi Calm Calm - N/A   Clear
7:36 PM 10.4 °F - 3.2 °F 73% 29.94 in 10.0 mi Calm Calm - N/A   Clear
7:56 PM 10.4 °F - 1.4 °F 67% 29.95 in 10.0 mi Calm Calm - N/A   Clear
8:16 PM 8.6 °F - 3.2 °F 79% 29.94 in 10.0 mi Calm Calm - N/A   Clear
8:36 PM 8.6 °F - 3.2 °F 79% 29.93 in 10.0 mi Calm Calm - N/A   Clear
8:56 PM 10.4 °F - 3.2 °F 73% 29.93 in 10.0 mi Calm Calm - N/A   Clear
9:16 PM 10.4 °F - 3.2 °F 73% 29.93 in 10.0 mi Calm Calm - N/A   Clear
9:36 PM 10.4 °F 4.0 °F 3.2 °F 73% 29.92 in 10.0 mi North 3.5 mph - N/A   Clear
9:56 PM 8.6 °F 2.0 °F 3.2 °F 79% 29.92 in 10.0 mi North 3.5 mph - N/A   Clear
10:16 PM 10.4 °F - 3.2 °F 73% 29.92 in 10.0 mi Calm Calm - N/A   Clear
10:36 PM 8.6 °F 2.0 °F 3.2 °F 79% 29.92 in 10.0 mi North 3.5 mph - N/A   Clear
10:56 PM 8.6 °F 2.0 °F 3.2 °F 79% 29.93 in 10.0 mi North 3.5 mph - N/A   Clear
11:16 PM 8.6 °F - 6.8 °F 92% 29.92 in 10.0 mi Calm Calm - N/A   Clear
11:36 PM 8.6 °F - 3.2 °F 79% 29.92 in 10.0 mi Calm Calm - N/A   Clear
11:56 PM 10.4 °F 2.2 °F 3.2 °F 73% 29.92 in 10.0 mi NNW 4.6 mph - N/A   Clear